Skip Page Navigation
NASA JPL Caltech
NASA Logo - Jet Propulsion Laboratory + View the NASA Portal
+ Center for Near-Earth Object Studies
JPL Home Earth Solar System Stars & Galaxies Technology
JPL Solar System Dynamics
BODIES ORBITS EPHEMERIDES TOOLS PHYSICAL DATA DISCOVERY FAQ SITE MAP
JPL Small-Body Database Browser
Search: [ help ]  
393543 (2002 VV96)
Classification: Main-belt Asteroid          SPK-ID: 2393543
Ephemeris | Orbit Diagram | Orbital Elements | Mission Design | Physical Parameters | Discovery Circumstances ]

[ show orbit diagram ]
Orbital Elements at Epoch 2459000.5 (2020-May-31.0) TDB
Reference: JPL 13 (heliocentric ecliptic J2000)
 Element Value Uncertainty (1-sigma)   Units 
e .1872304260057171 7.6339e-08  
a 2.209293644175213 1.4478e-08 au
q 1.795646654004565 1.736e-07 au
i 7.129669545845513 6.6874e-06 deg
node 69.67105430637341 5.9804e-05 deg
peri 316.4683798517938 6.2271e-05 deg
M 144.4079849773008 1.8596e-05 deg
tp 2458519.364614239858
(2019-Feb-04.86461424)
5.9537e-05 TDB
period 1199.440175699963
3.28
1.179e-05
3.228e-08
d
yr
n .3001400213978269 2.9503e-09 deg/d
Q 2.622940634345861 1.7189e-08 au
  Orbit Determination Parameters
   # obs. used (total)      170  
   data-arc span      6284 days (17.20 yr)  
   first obs. used      2002-11-11  
   last obs. used      2020-01-25  
   planetary ephem.      DE431  
   SB-pert. ephem.      SB431-N16  
   condition code      0  
   norm. resid. RMS      .65747  
   source      ORB  
   producer      Otto Matic  
   solution date      2020-Feb-26 04:51:01  

Additional Information
 Earth MOID = .808475 au 
 Jupiter MOID = 2.82889 au 
 T_jup = 3.625 
[ show covariance matrix ]

Ephemeris | Orbit Diagram | Orbital Elements | Mission Design | Physical Parameters | Discovery Circumstances ]

Physical Parameter Table
Parameter Symbol Value Units Sigma Reference Notes
absolute magnitude H 18.0   n/a MPO455791  

393543 (2002 VV96)          Discovered 2002-Nov-11 by LINEAR at Socorro
Reference: Last Updated: 2014-05-15
Ephemeris | Orbit Diagram | Orbital Elements | Mission Design | Physical Parameters | Discovery Circumstances ]
ABOUT SSD CREDITS/AWARDS PRIVACY/COPYRIGHT GLOSSARY LINKS
FirstGov 2020-Jul-07 06:10 UT
(server date/time)  
NASA Home Page
Site Manager:   Ryan S. Park
Webmaster  Alan B. Chamberlin